,,Stat6,,Stat2,,Stat8,,Stat9,,Stat10,,Wind1,,Wind1,
time,status,PA1M_AVG,status,PR1M_SUM,status,RH1M_AVG,status,SR1M_AVG,status,TA1M_AVG,status,W1dAve1m,status,W1sAve1m,
2004-08-29, 00:00:00,VALID,919.091,VALID,0,VALID,93.482,VALID,-0.0509425,VALID,19.3667,VALID,18,VALID,0.542436,
2004-08-29, 00:01:00,VALID,919.08,VALID,0,VALID,93.6359,VALID,-0.0849042,VALID,19.3443,VALID,21,VALID,0.481898,
2004-08-29, 00:02:00,VALID,919.078,VALID,0,VALID,93.7478,VALID,-0.0509425,VALID,19.3286,VALID,37,VALID,0.419643,
2004-08-29, 00:03:00,VALID,919.09,VALID,0,VALID,93.7948,VALID,-0.101885,VALID,19.3088,VALID,56,VALID,0.488281,
2004-08-29, 00:04:00,VALID,919.07,VALID,0,VALID,93.8406,VALID,-0.101885,VALID,19.2857,VALID,88,VALID,0.59096,
2004-08-29, 00:05:00,VALID,919.068,VALID,0,VALID,93.8177,VALID,-0.0849042,VALID,19.27,VALID,109,VALID,0.819965,
2004-08-29, 00:06:00,VALID,919.067,VALID,0,VALID,93.9322,VALID,-0.101885,VALID,19.238,VALID,121,VALID,0.997954,
2004-08-29, 00:07:00,VALID,919.044,VALID,0,VALID,94.2869,VALID,-0.101885,VALID,19.1933,VALID,131,VALID,0.982846,
2004-08-29, 00:08:00,VALID,919.037,VALID,0,VALID,94.3442,VALID,-0.101885,VALID,19.1347,VALID,134,VALID,0.836509,
2004-08-29, 00:09:00,VALID,919.026,VALID,0,VALID,94.4192,VALID,-0.0509425,VALID,19.1021,VALID,128,VALID,0.642401,
2004-08-29, 00:10:00,VALID,919.014,VALID,0,VALID,94.5743,VALID,-0.0339617,VALID,19.049,VALID,115,VALID,0.611374,
2004-08-29, 00:11:00,VALID,919.021,VALID,0,VALID,94.8706,VALID,0,VALID,18.9912,VALID,125,VALID,0.614211,
2004-08-29, 00:12:00,VALID,918.994,VALID,0,VALID,95.069,VALID,-0.0169808,VALID,18.9492,VALID,124,VALID,0.52934,
2004-08-29, 00:13:00,VALID,918.983,VALID,0,VALID,95.3119,VALID,0,VALID,18.9144,VALID,124,VALID,0.478646,
2004-08-29, 00:14:00,VALID,918.96,VALID,0,VALID,95.6476,VALID,0.0169808,VALID,18.8752,VALID,126,VALID,0.570845,
2004-08-29, 00:15:00,VALID,918.941,VALID,0,VALID,95.776,VALID,0,VALID,18.8561,VALID,152,VALID,0.565104,
2004-08-29, 00:16:00,VALID,918.934,VALID,0,VALID,95.8116,VALID,0,VALID,18.8305,VALID,146,VALID,0.230646,
2004-08-29, 00:17:00,VALID,918.922,VALID,0,VALID,95.7582,VALID,0,VALID,18.7972,VALID,145,VALID,0.0520833,
2004-08-29, 00:18:00,VALID,918.92,VALID,0,VALID,95.7264,VALID,-0.0169808,VALID,18.7786,VALID,145,VALID,0.221637,
2004-08-29, 00:19:00,VALID,918.902,VALID,0,VALID,95.6081,VALID,0.0169808,VALID,18.7368,VALID,145,VALID,0.236793,
2004-08-29, 00:20:00,VALID,918.894,VALID,0,VALID,95.3258,VALID,0,VALID,18.672,VALID,145,VALID,0.258789,
2004-08-29, 00:21:00,VALID,918.877,VALID,0,VALID,95.598,VALID,0,VALID,18.604,VALID,145,VALID,0.488095,
2004-08-29, 00:22:00,VALID,918.842,VALID,0,VALID,95.9502,VALID,0,VALID,18.5621,VALID,147,VALID,0.462054,
2004-08-29, 00:23:00,VALID,918.797,VALID,0,VALID,95.9667,VALID,0.0169808,VALID,18.5109,VALID,138,VALID,0.415737,
2004-08-29, 00:24:00,VALID,918.766,VALID,0,VALID,96.1651,VALID,0.0169808,VALID,18.4389,VALID,128,VALID,0.165923,
2004-08-29, 00:25:00,VALID,918.756,VALID,0,VALID,96.3749,VALID,0,VALID,18.4138,VALID,128,VALID,0.0523793,
2004-08-29, 00:26:00,VALID,918.735,VALID,0,VALID,96.6559,VALID,0,VALID,18.3947,VALID,128,VALID,0.147675,
2004-08-29, 00:27:00,VALID,918.716,VALID,0,VALID,96.7386,VALID,-0.0169808,VALID,18.3818,VALID,128,VALID,0.270241,
2004-08-29, 00:28:00,VALID,918.717,VALID,0,VALID,96.7093,VALID,0,VALID,18.3297,VALID,128,VALID,0.193614,
2004-08-29, 00:29:00,VALID,918.728,VALID,0,VALID,96.9408,VALID,0,VALID,18.3107,VALID,128,VALID,0.183594,
2004-08-29, 00:30:00,VALID,918.743,VALID,0,VALID,97.2612,VALID,0,VALID,18.3107,VALID,128,VALID,0.229992,
2004-08-29, 00:31:00,VALID,918.762,VALID,0,VALID,97.466,VALID,-0.0169808,VALID,18.3204,VALID,128,VALID,0.0483994,
2004-08-29, 00:32:00,VALID,918.753,VALID,0,VALID,97.7648,VALID,0,VALID,18.3338,VALID,128,VALID,0,
2004-08-29, 00:33:00,VALID,918.764,VALID,0,VALID,97.8322,VALID,-0.0169808,VALID,18.3559,VALID,128,VALID,0,
2004-08-29, 00:34:00,VALID,918.752,VALID,0,VALID,98.0572,VALID,0.0169808,VALID,18.3751,VALID,128,VALID,0,
2004-08-29, 00:35:00,VALID,918.752,VALID,0,VALID,98.2785,VALID,0.0339617,VALID,18.4041,VALID,128,VALID,0,
2004-08-29, 00:36:00,VALID,918.743,VALID,0,VALID,98.131,VALID,-0.0169808,VALID,18.4436,VALID,128,VALID,0.139717,
2004-08-29, 00:37:00,VALID,918.73,VALID,0,VALID,98.0928,VALID,0.0509425,VALID,18.4493,VALID,128,VALID,0.0961682,
2004-08-29, 00:38:00,VALID,918.715,VALID,0,VALID,97.0489,VALID,0,VALID,18.3882,VALID,95,VALID,0.525073,
2004-08-29, 00:39:00,VALID,918.716,VALID,0,VALID,96.1867,VALID,-0.0169808,VALID,18.2277,VALID,71,VALID,0.610119,
2004-08-29, 00:40:00,VALID,918.739,VALID,0,VALID,96.5313,VALID,-0.101885,VALID,18.1249,VALID,64,VALID,0.714753,
2004-08-29, 00:41:00,VALID,918.75,VALID,0,VALID,96.9993,VALID,-0.101885,VALID,18.0675,VALID,63,VALID,0.684722,
2004-08-29, 00:42:00,VALID,918.758,VALID,0,VALID,97.3858,VALID,-0.101885,VALID,18.038,VALID,63,VALID,0.493253,
2004-08-29, 00:43:00,VALID,918.765,VALID,0,VALID,97.4087,VALID,-0.101885,VALID,17.9928,VALID,63,VALID,0.427591,
2004-08-29, 00:44:00,VALID,918.742,VALID,0,VALID,97.3706,VALID,-0.101885,VALID,17.961,VALID,63,VALID,0.527344,
2004-08-29, 00:45:00,VALID,918.73,VALID,0,VALID,97.307,VALID,-0.0849042,VALID,17.8992,VALID,63,VALID,0.489583,
2004-08-29, 00:46:00,VALID,918.694,VALID,0,VALID,98.0394,VALID,0.0339617,VALID,17.9075,VALID,63,VALID,0.422828,
2004-08-29, 00:47:00,VALID,918.679,VALID,0,VALID,98.6498,VALID,-0.0339617,VALID,17.9598,VALID,63,VALID,0.422266,
2004-08-29, 00:48:00,VALID,918.669,VALID,0,VALID,98.7108,VALID,0.0169808,VALID,17.9949,VALID,68,VALID,0.549279,
2004-08-29, 00:49:00,VALID,918.656,VALID,0,VALID,98.6333,VALID,0.0169808,VALID,17.9822,VALID,128,VALID,1.00632,
2004-08-29, 00:50:00,VALID,918.657,VALID,0,VALID,98.8711,VALID,0,VALID,17.9949,VALID,132,VALID,1.16497,
2004-08-29, 00:51:00,VALID,918.665,VALID,0,VALID,99.1305,VALID,0,VALID,18.0246,VALID,132,VALID,1.13209,
2004-08-29, 00:52:00,VALID,918.662,VALID,0,VALID,99.47,VALID,-0.0169808,VALID,18.0956,VALID,136,VALID,1.12969,
2004-08-29, 00:53:00,VALID,918.659,VALID,0,VALID,99.5399,VALID,-0.0169808,VALID,18.1535,VALID,137,VALID,1.00991,
2004-08-29, 00:54:00,VALID,918.652,VALID,0,VALID,99.531,VALID,-0.0169808,VALID,18.2349,VALID,152,VALID,0.821528,
2004-08-29, 00:55:00,VALID,918.653,VALID,0,VALID,99.4776,VALID,0,VALID,18.2598,VALID,130,VALID,0.596908,
2004-08-29, 00:56:00,VALID,918.632,VALID,0,VALID,99.3454,VALID,-0.0169808,VALID,18.3089,VALID,128,VALID,0.577148,
2004-08-29, 00:57:00,VALID,918.599,VALID,0,VALID,99.2843,VALID,0,VALID,18.3345,VALID,115,VALID,0.44112,
2004-08-29, 00:58:00,VALID,918.583,VALID,0,VALID,99.0262,VALID,-0.0169808,VALID,18.3338,VALID,57,VALID,0.265443,
2004-08-29, 00:59:00,VALID,918.563,VALID,0,VALID,98.7795,VALID,0,VALID,18.331,VALID,57,VALID,0.0390625,
2004-08-29, 01:00:00,VALID,918.547,VALID,0,VALID,98.5506,VALID,-0.0169808,VALID,18.3112,VALID,57,VALID,0,
2004-08-29, 01:01:00,VALID,918.537,VALID,0,VALID,98.3802,VALID,0,VALID,18.2888,VALID,57,VALID,0,
2004-08-29, 01:02:00,VALID,918.537,VALID,0,VALID,98.1361,VALID,0.0169808,VALID,18.2563,VALID,57,VALID,0,
2004-08-29, 01:03:00,VALID,918.541,VALID,0,VALID,98.1081,VALID,0,VALID,18.2337,VALID,57,VALID,0,
2004-08-29, 01:04:00,VALID,918.538,VALID,0,VALID,98.0534,VALID,0,VALID,18.2275,VALID,57,VALID,0.164063,
2004-08-29, 01:05:00,VALID,918.534,VALID,0,VALID,98.0369,VALID,0.0339617,VALID,18.2017,VALID,57,VALID,0.314063,
2004-08-29, 01:06:00,VALID,918.532,VALID,0,VALID,98.2276,VALID,-0.0169808,VALID,18.2084,VALID,57,VALID,0.334604,
2004-08-29, 01:07:00,VALID,918.54,VALID,0,VALID,98.1908,VALID,0,VALID,18.1957,VALID,57,VALID,0.39826,
2004-08-29, 01:08:00,VALID,918.547,VALID,0,VALID,98.2607,VALID,0.0339617,VALID,18.1819,VALID,57,VALID,0.321023,
2004-08-29, 01:09:00,VALID,918.547,VALID,0,VALID,98.3205,VALID,0.0169808,VALID,18.1952,VALID,57,VALID,0.28016,
2004-08-29, 01:10:00,VALID,918.539,VALID,0,VALID,98.4489,VALID,0,VALID,18.1853,VALID,57,VALID,0.323958,
2004-08-29, 01:11:00,VALID,918.52,VALID,0,VALID,98.4756,VALID,0.0169808,VALID,18.1692,VALID,57,VALID,0.293255,
2004-08-29, 01:12:00,VALID,918.503,VALID,0,VALID,98.4934,VALID,-0.0169808,VALID,18.1729,VALID,57,VALID,0.321023,
2004-08-29, 01:13:00,VALID,918.462,VALID,0,VALID,98.7299,VALID,0,VALID,18.1826,VALID,57,VALID,0.355469,
2004-08-29, 01:14:00,VALID,918.433,VALID,0,VALID,98.983,VALID,0,VALID,18.2211,VALID,39,VALID,0.405523,
2004-08-29, 01:15:00,VALID,918.403,VALID,0,VALID,99.2742,VALID,0,VALID,18.3054,VALID,3,VALID,0.34446,
2004-08-29, 01:16:00,VALID,918.386,VALID,0,VALID,99.3759,VALID,0,VALID,18.3991,VALID,346,VALID,0.20856,
2004-08-29, 01:17:00,VALID,918.376,VALID,0,VALID,99.2297,VALID,0.0169808,VALID,18.4567,VALID,346,VALID,0.0222222,
2004-08-29, 01:18:00,VALID,918.375,VALID,0,VALID,98.9359,VALID,0,VALID,18.4728,VALID,346,VALID,0.0294744,
2004-08-29, 01:19:00,VALID,918.38,VALID,0,VALID,98.88,VALID,0.0169808,VALID,18.5054,VALID,320,VALID,0.423971,
2004-08-29, 01:20:00,VALID,918.376,VALID,0,VALID,98.9995,VALID,0,VALID,18.5635,VALID,291,VALID,0.481027,
2004-08-29, 01:21:00,VALID,918.377,VALID,0,VALID,98.8749,VALID,0,VALID,18.6179,VALID,289,VALID,0.393601,
2004-08-29, 01:22:00,VALID,918.378,VALID,0,VALID,98.6536,VALID,0.0169808,VALID,18.6405,VALID,289,VALID,0.250781,
2004-08-29, 01:23:00,VALID,918.363,VALID,0,VALID,98.4336,VALID,0,VALID,18.6541,VALID,289,VALID,0.129192,
2004-08-29, 01:24:00,VALID,918.353,VALID,0,VALID,98.4069,VALID,-0.0339617,VALID,18.6633,VALID,289,VALID,0.0941311,
2004-08-29, 01:25:01,VALID,918.353,VALID,0,VALID,98.3141,VALID,-0.101885,VALID,18.6776,VALID,289,VALID,0.0716797,
2004-08-29, 01:26:01,VALID,918.335,VALID,0,VALID,98.2251,VALID,-0.135847,VALID,18.6749,VALID,289,VALID,0.160792,
2004-08-29, 01:27:00,VALID,918.332,VALID,0,VALID,98.1895,VALID,-0.101885,VALID,18.6679,VALID,291,VALID,0.328125,
2004-08-29, 01:28:00,VALID,918.34,VALID,0,VALID,98.2607,VALID,-0.101885,VALID,18.6776,VALID,291,VALID,0.261905,
2004-08-29, 01:29:00,VALID,918.335,VALID,0,VALID,98.3065,VALID,-0.101885,VALID,18.7067,VALID,291,VALID,0.281622,
2004-08-29, 01:30:00,VALID,918.326,VALID,0,VALID,98.2556,VALID,-0.118866,VALID,18.7364,VALID,302,VALID,0.217516,
2004-08-29, 01:31:00,VALID,918.32,VALID,0,VALID,98.1819,VALID,-0.101885,VALID,18.7461,VALID,326,VALID,0.28726,
2004-08-29, 01:32:01,VALID,918.306,VALID,0,VALID,98.1819,VALID,-0.118866,VALID,18.765,VALID,350,VALID,0.447129,
2004-08-29, 01:33:01,VALID,918.295,VALID,0,VALID,98.0509,VALID,-0.118866,VALID,18.7909,VALID,360,VALID,0.803977,
2004-08-29, 01:34:00,VALID,918.298,VALID,0,VALID,97.8004,VALID,-0.101885,VALID,18.81,VALID,3,VALID,0.736037,
2004-08-29, 01:35:00,VALID,918.285,VALID,0,VALID,97.6783,VALID,-0.101885,VALID,18.8388,VALID,3,VALID,0.415179,
2004-08-29, 01:36:00,VALID,918.277,VALID,0,VALID,97.527,VALID,-0.118866,VALID,18.8517,VALID,3,VALID,0.174237,
2004-08-29, 01:37:00,VALID,918.272,VALID,0,VALID,97.3858,VALID,-0.118866,VALID,18.8912,VALID,3,VALID,0.210756,
2004-08-29, 01:38:00,VALID,918.25,VALID,0,VALID,97.1417,VALID,-0.118866,VALID,18.884,VALID,11,VALID,0.87609,
2004-08-29, 01:39:00,VALID,918.233,VALID,0,VALID,97.0336,VALID,-0.0679233,VALID,18.8803,VALID,21,VALID,0.539063,
2004-08-29, 01:40:01,VALID,918.205,VALID,0,VALID,96.9408,VALID,-0.0339617,VALID,18.892,VALID,9,VALID,0.672057,
2004-08-29, 01:41:01,VALID,918.188,VALID,0,VALID,96.8556,VALID,-0.0509425,VALID,18.9119,VALID,2,VALID,0.338663,
2004-08-29, 01:42:00,VALID,918.163,VALID,0,VALID,96.8607,VALID,-0.0509425,VALID,18.9218,VALID,344,VALID,0.272743,
2004-08-29, 01:43:00,VALID,918.133,VALID,0,VALID,96.8734,VALID,-0.0849042,VALID,18.9276,VALID,312,VALID,0.117378,
2004-08-29, 01:44:00,VALID,918.116,VALID,0,VALID,96.8009,VALID,-0.0679233,VALID,18.9278,VALID,328,VALID,0.653088,
2004-08-29, 01:45:00,VALID,918.101,VALID,0,VALID,96.6788,VALID,-0.0339617,VALID,18.9539,VALID,356,VALID,0.823103,
2004-08-29, 01:46:00,VALID,918.082,VALID,0,VALID,96.5097,VALID,0,VALID,18.9568,VALID,351,VALID,0.736919,
2004-08-29, 01:47:00,VALID,918.069,VALID,0,VALID,96.4042,VALID,-0.0679233,VALID,18.97,VALID,359,VALID,0.526758,
2004-08-29, 01:48:00,VALID,918.043,VALID,0,VALID,96.3075,VALID,-0.0509425,VALID,18.9767,VALID,326,VALID,0.387784,
2004-08-29, 01:49:00,VALID,918.04,VALID,0,VALID,96.2338,VALID,-0.0169808,VALID,18.9866,VALID,351,VALID,0.467862,
2004-08-29, 01:50:00,VALID,918.013,VALID,0,VALID,96.1422,VALID,-0.0169808,VALID,18.9866,VALID,351,VALID,0.480859,
2004-08-29, 01:51:00,VALID,917.996,VALID,0,VALID,96.0812,VALID,-0.0339617,VALID,18.9961,VALID,359,VALID,0.935268,
2004-08-29, 01:52:00,VALID,917.962,VALID,0,VALID,95.9197,VALID,-0.0679233,VALID,18.9765,VALID,357,VALID,0.792597,
2004-08-29, 01:53:00,VALID,917.953,VALID,0,VALID,95.8955,VALID,-0.0169808,VALID,18.973,VALID,340,VALID,0.702939,
2004-08-29, 01:54:01,VALID,917.92,VALID,0,VALID,95.8955,VALID,-0.0339617,VALID,18.9735,VALID,327,VALID,0.189986,
2004-08-29, 01:55:00,VALID,917.901,VALID,0,VALID,96.0011,VALID,-0.0509425,VALID,18.9665,VALID,326,VALID,0,
2004-08-29, 01:56:00,VALID,917.885,VALID,0,VALID,96.0163,VALID,-0.0169808,VALID,18.9435,VALID,326,VALID,0,
2004-08-29, 01:57:01,VALID,917.862,VALID,0,VALID,95.9324,VALID,-0.0679233,VALID,18.934,VALID,339,VALID,0.179688,
2004-08-29, 01:58:00,VALID,917.842,VALID,0,VALID,95.701,VALID,-0.0339617,VALID,18.8858,VALID,350,VALID,0.0141715,
2004-08-29, 01:59:00,VALID,917.817,VALID,0,VALID,95.9349,VALID,-0.0339617,VALID,18.8374,VALID,350,VALID,0.000173611,
2004-08-29, 02:00:00,VALID,917.806,VALID,0,VALID,96.1994,VALID,0,VALID,18.7979,VALID,351,VALID,0.29043,
2004-08-29, 02:01:00,VALID,917.807,VALID,0,VALID,96.0786,VALID,-0.0169808,VALID,18.7664,VALID,355,VALID,0.398619,
2004-08-29, 02:02:00,VALID,917.805,VALID,0,VALID,96.3609,VALID,-0.0169808,VALID,18.7177,VALID,355,VALID,0.125182,
2004-08-29, 02:03:00,VALID,917.804,VALID,0,VALID,96.7844,VALID,-0.0169808,VALID,18.7083,VALID,325,VALID,0.347284,
2004-08-29, 02:04:00,VALID,917.789,VALID,0,VALID,97.2434,VALID,-0.0339617,VALID,18.7502,VALID,286,VALID,0.404492,
2004-08-29, 02:05:00,VALID,917.773,VALID,0,VALID,97.2599,VALID,-0.0509425,VALID,18.7631,VALID,286,VALID,0.0465278,
2004-08-29, 02:06:00,VALID,917.768,VALID,0,VALID,96.7132,VALID,-0.0169808,VALID,18.7276,VALID,286,VALID,0.0292553,
2004-08-29, 02:07:00,VALID,917.776,VALID,0,VALID,96.5936,VALID,-0.0679233,VALID,18.6861,VALID,349,VALID,0.352307,
2004-08-29, 02:08:00,VALID,917.782,VALID,0,VALID,96.736,VALID,-0.0679233,VALID,18.6308,VALID,3,VALID,0.420922,
2004-08-29, 02:09:00,VALID,917.778,VALID,0,VALID,97.1926,VALID,-0.0169808,VALID,18.6633,VALID,357,VALID,0.687863,
2004-08-29, 02:10:00,VALID,917.785,VALID,0,VALID,97.0857,VALID,-0.0509425,VALID,18.6723,VALID,357,VALID,0.407465,
2004-08-29, 02:11:00,VALID,917.767,VALID,0,VALID,96.8772,VALID,-0.0509425,VALID,18.6829,VALID,357,VALID,0.471236,
2004-08-29, 02:12:00,VALID,917.769,VALID,0,VALID,96.8187,VALID,-0.0509425,VALID,18.6963,VALID,357,VALID,0.522928,
2004-08-29, 02:13:00,VALID,917.748,VALID,0,VALID,96.942,VALID,0,VALID,18.6887,VALID,357,VALID,0.427973,
2004-08-29, 02:14:01,VALID,917.744,VALID,0,VALID,96.9662,VALID,-0.0339617,VALID,18.7341,VALID,357,VALID,0.283668,
2004-08-29, 02:15:00,VALID,917.741,VALID,0,VALID,96.6801,VALID,-0.0679233,VALID,18.7505,VALID,9,VALID,0.607639,
2004-08-29, 02:16:00,VALID,917.737,VALID,0,VALID,96.6343,VALID,-0.0679233,VALID,18.7698,VALID,10,VALID,0.854759,
2004-08-29, 02:17:01,VALID,917.725,VALID,0,VALID,96.497,VALID,-0.0509425,VALID,18.8088,VALID,22,VALID,0.68471,
2004-08-29, 02:18:00,VALID,917.724,VALID,0,VALID,96.2503,VALID,-0.0509425,VALID,18.8215,VALID,28,VALID,0.608994,
2004-08-29, 02:19:00,VALID,917.73,VALID,0,VALID,96.2897,VALID,-0.0169808,VALID,18.8441,VALID,17,VALID,0.197443,
2004-08-29, 02:20:00,VALID,917.718,VALID,0,VALID,96.1905,VALID,-0.0169808,VALID,18.86,VALID,17,VALID,0.0822173,
2004-08-29, 02:21:00,VALID,917.724,VALID,0,VALID,96.221,VALID,-0.0849042,VALID,18.8635,VALID,17,VALID,0.0927973,
2004-08-29, 02:22:00,VALID,917.718,VALID,0,VALID,96.2503,VALID,-0.0509425,VALID,18.8893,VALID,17,VALID,0.314453,
2004-08-29, 02:23:01,VALID,917.706,VALID,0,VALID,96.1384,VALID,-0.0169808,VALID,18.905,VALID,31,VALID,0.642773,
2004-08-29, 02:24:00,VALID,917.706,VALID,0,VALID,95.9197,VALID,0,VALID,18.9149,VALID,20,VALID,0.769727,
2004-08-29, 02:25:00,VALID,917.706,VALID,0,VALID,95.7366,VALID,-0.0339617,VALID,18.9179,VALID,2,VALID,0.614236,
2004-08-29, 02:26:00,VALID,917.71,VALID,0,VALID,95.5738,VALID,-0.0169808,VALID,18.9079,VALID,3,VALID,0.265067,
2004-08-29, 02:27:00,VALID,917.686,VALID,0,VALID,95.7022,VALID,-0.0169808,VALID,18.8819,VALID,3,VALID,0.287791,
2004-08-29, 02:28:00,VALID,917.704,VALID,0,VALID,95.8548,VALID,-0.0169808,VALID,18.892,VALID,3,VALID,0.330163,
2004-08-29, 02:29:01,VALID,917.697,VALID,0,VALID,95.8663,VALID,-0.0679233,VALID,18.9121,VALID,3,VALID,0.158067,
2004-08-29, 02:30:01,VALID,917.687,VALID,0,VALID,95.8408,VALID,-0.0169808,VALID,18.9216,VALID,3,VALID,0.543146,
2004-08-29, 02:31:00,VALID,917.673,VALID,0,VALID,95.6323,VALID,-0.0509425,VALID,18.9504,VALID,5,VALID,0.450107,
2004-08-29, 02:32:00,VALID,917.655,VALID,0,VALID,95.4466,VALID,-0.0509425,VALID,18.937,VALID,7,VALID,0.488542,
2004-08-29, 02:33:01,VALID,917.635,VALID,0,VALID,95.3068,VALID,-0.0339617,VALID,18.9407,VALID,13,VALID,0.466273,
2004-08-29, 02:34:00,VALID,917.629,VALID,0,VALID,95.0474,VALID,-0.0169808,VALID,18.8923,VALID,16,VALID,0.347561,
2004-08-29, 02:35:00,VALID,917.614,VALID,0,VALID,95.158,VALID,-0.0679233,VALID,18.8178,VALID,16,VALID,0.25327,
2004-08-29, 02:36:01,VALID,917.602,VALID,0,VALID,95.4238,VALID,-0.0339617,VALID,18.8021,VALID,16,VALID,0.17066,
2004-08-29, 02:37:00,VALID,917.585,VALID,0,VALID,95.6412,VALID,-0.0169808,VALID,18.7731,VALID,16,VALID,0.380273,
2004-08-29, 02:38:00,VALID,917.57,VALID,0,VALID,95.804,VALID,-0.0509425,VALID,18.75,VALID,16,VALID,0.465661,
2004-08-29, 02:39:00,VALID,917.584,VALID,0,VALID,95.8574,VALID,-0.0169808,VALID,18.7274,VALID,7,VALID,0.304142,
2004-08-29, 02:40:01,VALID,917.577,VALID,0,VALID,96.1269,VALID,0.0509425,VALID,18.7331,VALID,336,VALID,0.260938,
2004-08-29, 02:41:01,VALID,917.558,VALID,0,VALID,96.4868,VALID,0.0339617,VALID,18.7684,VALID,336,VALID,0.193496,
2004-08-29, 02:42:00,VALID,917.558,VALID,0,VALID,96.4627,VALID,0.0509425,VALID,18.8337,VALID,335,VALID,0.0838542,
2004-08-29, 02:43:01,VALID,917.554,VALID,0,VALID,96.0824,VALID,0.0339617,VALID,18.8627,VALID,344,VALID,0.308594,
2004-08-29, 02:44:00,VALID,917.555,VALID,0,VALID,95.3335,VALID,0.0339617,VALID,18.8305,VALID,352,VALID,0.428622,
2004-08-29, 02:45:00,VALID,917.543,VALID,0,VALID,95.5827,VALID,0.0339617,VALID,18.8111,VALID,352,VALID,0.0640244,
2004-08-29, 02:46:00,VALID,917.544,VALID,0,VALID,95.762,VALID,0.0509425,VALID,18.8139,VALID,352,VALID,0.218387,
2004-08-29, 02:47:01,VALID,917.55,VALID,0,VALID,95.6298,VALID,0.0169808,VALID,18.8208,VALID,352,VALID,0.043423,
2004-08-29, 02:48:00,VALID,917.552,VALID,0,VALID,95.556,VALID,0.0169808,VALID,18.7913,VALID,352,VALID,0,
2004-08-29, 02:49:00,VALID,917.545,VALID,0,VALID,95.6437,VALID,0.0339617,VALID,18.7751,VALID,352,VALID,0.294085,
2004-08-29, 02:50:00,VALID,917.545,VALID,0,VALID,95.6654,VALID,0.101885,VALID,18.7461,VALID,352,VALID,0.349432,
2004-08-29, 02:51:00,VALID,917.558,VALID,0,VALID,95.8904,VALID,0.0849042,VALID,18.7232,VALID,352,VALID,0.601563,
2004-08-29, 02:52:00,VALID,917.553,VALID,0,VALID,96.5033,VALID,0.0679233,VALID,18.7624,VALID,360,VALID,0.997954,
2004-08-29, 02:53:00,VALID,917.546,VALID,0,VALID,96.2617,VALID,0.0679233,VALID,18.8106,VALID,3,VALID,0.997266,
2004-08-29, 02:54:01,VALID,917.553,VALID,0,VALID,96.0952,VALID,-0.0169808,VALID,18.8213,VALID,354,VALID,0.950076,
2004-08-29, 02:55:01,VALID,917.573,VALID,0,VALID,96.4614,VALID,-0.0679233,VALID,18.8602,VALID,351,VALID,0.656076,
2004-08-29, 02:56:00,VALID,917.549,VALID,0,VALID,96.3253,VALID,-0.0339617,VALID,18.932,VALID,16,VALID,1.09077,
2004-08-29, 02:57:01,VALID,917.564,VALID,0,VALID,96.0189,VALID,-0.0509425,VALID,18.9864,VALID,25,VALID,1.26491,
2004-08-29, 02:58:00,VALID,917.555,VALID,0,VALID,95.5649,VALID,-0.0679233,VALID,19.074,VALID,15,VALID,1.20603,
2004-08-29, 02:59:00,VALID,917.572,VALID,0,VALID,95.0524,VALID,-0.0679233,VALID,19.1096,VALID,16,VALID,0.593006,
2004-08-29, 03:00:01,VALID,917.56,VALID,0,VALID,94.8681,VALID,-0.0339617,VALID,19.0798,VALID,5,VALID,0.436806,
2004-08-29, 03:01:00,VALID,917.568,VALID,0,VALID,95.2381,VALID,-0.0509425,VALID,19.0964,VALID,322,VALID,0.641352,
2004-08-29, 03:02:01,VALID,917.576,VALID,0,VALID,95.1478,VALID,-0.0509425,VALID,19.1096,VALID,251,VALID,0.520579,
2004-08-29, 03:03:01,VALID,917.567,VALID,0,VALID,95.2623,VALID,-0.0679233,VALID,19.0994,VALID,251,VALID,0.0230824,
2004-08-29, 03:04:00,VALID,917.554,VALID,0,VALID,95.3805,VALID,-0.0849042,VALID,19.0872,VALID,266,VALID,0.456287,
2004-08-29, 03:05:01,VALID,917.55,VALID,0,VALID,95.4441,VALID,-0.0849042,VALID,19.074,VALID,29,VALID,1.1495,
2004-08-29, 03:06:00,VALID,917.55,VALID,0,VALID,95.6374,VALID,-0.101885,VALID,19.0388,VALID,14,VALID,0.973214,
2004-08-29, 03:07:01,VALID,917.552,VALID,0,VALID,95.6565,VALID,-0.0849042,VALID,19.0028,VALID,13,VALID,0.735518,
2004-08-29, 03:08:00,VALID,917.55,VALID,0,VALID,95.8294,VALID,-0.101885,VALID,19.0003,VALID,13,VALID,0.488735,
2004-08-29, 03:09:00,VALID,917.57,VALID,0,VALID,95.8764,VALID,-0.0679233,VALID,19.0028,VALID,314,VALID,0.55971,
2004-08-29, 03:10:01,VALID,917.571,VALID,0,VALID,95.9705,VALID,0.0169808,VALID,18.9986,VALID,347,VALID,0.471037,
2004-08-29, 03:11:01,VALID,917.545,VALID,0,VALID,96.0239,VALID,0.0339617,VALID,18.9882,VALID,300,VALID,0.56612,
2004-08-29, 03:12:01,VALID,917.54,VALID,0,VALID,96.0557,VALID,0.0339617,VALID,18.9787,VALID,24,VALID,1.01726,
2004-08-29, 03:13:01,VALID,917.561,VALID,0,VALID,96.1333,VALID,0.0339617,VALID,18.969,VALID,3,VALID,1.05964,
2004-08-29, 03:14:00,VALID,917.589,VALID,0,VALID,96.0863,VALID,0.0339617,VALID,18.982,VALID,7,VALID,1.16477,
2004-08-29, 03:15:00,VALID,917.591,VALID,0,VALID,95.8319,VALID,0.0169808,VALID,19.0209,VALID,10,VALID,1.3402,
2004-08-29, 03:16:01,VALID,917.58,VALID,0,VALID,95.8345,VALID,0.0509425,VALID,19.082,VALID,2,VALID,1.72752,
2004-08-29, 03:17:00,VALID,917.576,VALID,0,VALID,95.1834,VALID,0,VALID,19.2082,VALID,6,VALID,1.63646,
2004-08-29, 03:18:01,VALID,917.589,VALID,0,VALID,94.6888,VALID,0,VALID,19.282,VALID,358,VALID,1.14253,
2004-08-29, 03:19:00,VALID,917.588,VALID,0,VALID,94.5133,VALID,0,VALID,19.3371,VALID,332,VALID,0.829459,
2004-08-29, 03:20:01,VALID,917.559,VALID,0,VALID,94.1585,VALID,0.0169808,VALID,19.4111,VALID,12,VALID,1.54215,
2004-08-29, 03:21:01,VALID,917.549,VALID,0,VALID,93.7503,VALID,0,VALID,19.431,VALID,15,VALID,1.5947,
2004-08-29, 03:22:01,VALID,917.548,VALID,0,VALID,93.7084,VALID,0,VALID,19.4218,VALID,12,VALID,1.81441,
2004-08-29, 03:23:01,VALID,917.522,VALID,0,VALID,93.8597,VALID,-0.0169808,VALID,19.3632,VALID,17,VALID,1.70332,
2004-08-29, 03:24:01,VALID,917.536,VALID,0,VALID,93.9067,VALID,0,VALID,19.3048,VALID,16,VALID,1.52148,
2004-08-29, 03:25:01,VALID,917.52,VALID,0,VALID,94.4383,VALID,0.0169808,VALID,19.2624,VALID,13,VALID,1.82927,
2004-08-29, 03:26:01,VALID,917.525,VALID,0,VALID,94.6176,VALID,0.0169808,VALID,19.2661,VALID,24,VALID,1.86793,
2004-08-29, 03:27:01,VALID,917.531,VALID,0,VALID,94.4713,VALID,0.0169808,VALID,19.2534,VALID,9,VALID,1.21289,
2004-08-29, 03:28:01,VALID,917.534,VALID,0,VALID,94.7651,VALID,0.0169808,VALID,19.2338,VALID,5,VALID,1.12051,
2004-08-29, 03:29:01,VALID,917.518,VALID,0,VALID,94.9138,VALID,0,VALID,19.2147,VALID,7,VALID,1.16315,
2004-08-29, 03:30:00,VALID,917.504,VALID,0,VALID,94.9469,VALID,0.0509425,VALID,19.1948,VALID,2,VALID,1.16183,
2004-08-29, 03:31:00,VALID,917.502,VALID,0,VALID,95.2076,VALID,0.0169808,VALID,19.1722,VALID,16,VALID,1.66959,
2004-08-29, 03:32:01,VALID,917.516,VALID,0,VALID,95.2826,VALID,0.0169808,VALID,19.1724,VALID,7,VALID,1.55487,
2004-08-29, 03:33:01,VALID,917.527,VALID,0,VALID,95.4199,VALID,0.0339617,VALID,19.1891,VALID,1,VALID,1.53087,